This is the latest recevied weather packets stored in our database for station/object AI4ZL. If no packets are shown the sender has not sent any weather packets the latest 10 day(s).
| Time | Temp. | Humidity | Pressure | Rain* | Wind** | Luminosity | Snow |
|---|---|---|---|---|---|---|---|
| 1777873228 | 16.11° C | 61% | 1013.6 hPa | 0 mm | - | 0 W/m² | - |
| 1777872021 | 15.56° C | 60% | 1013.9 hPa | 0 mm | - | 0 W/m² | - |
| 1777870218 | 15.56° C | 60% | 1013.9 hPa | 0 mm | - | 0 W/m² | - |
| 1777867226 | 15.56° C | 60% | 1014.4 hPa | 0 mm | - | 0 W/m² | - |
| 1777866631 | 15° C | 60% | 1014.4 hPa | 0 mm | - | 0 W/m² | - |
| 1777860038 | 17.78° C | 52% | 1014.2 hPa | 0 mm | - | 0 W/m² | - |
| 1777857025 | 17.78° C | 50% | 1013.9 hPa | 0 mm | - | 0 W/m² | - |
| 1777850429 | 21.11° C | 40% | 1014.9 hPa | 0 mm | - | 122 W/m² | - |
| 1777849818 | 21.11° C | 39% | 1014.8 hPa | 0 mm | - | 159 W/m² | - |
| 1777848032 | 21.67° C | 39% | 1015.1 hPa | 0 mm | - | 235 W/m² | - |
| 1777839617 | 21.11° C | 43% | 1017.9 hPa | 0 mm | - | 582 W/m² | - |
| 1777833633 | 19.44° C | 47% | 1020.2 hPa | 0 mm | - | 660 W/m² | - |
| 1777831830 | 19.44° C | 46% | 1020.7 hPa | 0 mm | - | 741 W/m² | - |
| 1777830623 | 18.89° C | 48% | 1021.1 hPa | 0 mm | - | 742 W/m² | - |
| 1777828821 | 17.78° C | 49% | 1021.4 hPa | 0 mm | - | 610 W/m² | - |
| 1777822820 | 15.56° C | 56% | 1022.6 hPa | 0 mm | - | 711 W/m² | - |
| 1777822224 | 15.56° C | 57% | 1022.9 hPa | 0 mm | - | 765 W/m² | - |
| 1777820422 | 15° C | 62% | 1022.8 hPa | 0 mm | - | 692 W/m² | - |
| 1777817430 | 12.78° C | 74% | 1022.6 hPa | 0 mm | - | 499 W/m² | - |
| 1777816839 | 12.78° C | 75% | 1022.4 hPa | 0 mm | - | 441 W/m² | - |
| 1777816244 | 12.22° C | 76% | 1022.5 hPa | 0 mm | - | 388 W/m² | - |
| 1777815016 | 11.11° C | 81% | 1022.4 hPa | 0 mm | - | 350 W/m² | - |
| 1777811429 | 7.78° C | 99% | 1022.5 hPa | 0 mm | - | 60 W/m² | - |
| 1777810222 | 4.44° C | 99% | 1022.4 hPa | 0 mm | - | 38 W/m² | - |
| 1777807824 | 2.78° C | 99% | 1021.9 hPa | 0 mm | - | 17 W/m² | - |
* Rain latest hour (hover to see other rain measurements)
** Current wind speed in m/s (hover to see current wind gust speed)